Location: Malvern Link
(52.1333°N, 2.3000°W)
Time: 09:07:15
(UTC+00:00)

Cosmos 1634 Rocket - Pass Details

Date: 07 December 2021
Orbit: 959 x 993 km, 82.9° (Epoch: 24 January)

Event Time Altitude Azimuth Distance (km) Brightness Sun altitude
Rises 17:06:46 0° 173° (S) 3,696 7.3 -9.9°
Reaches altitude 10° 17:09:19 10° 169° (S) 2,752 6.5 -10.3°
Maximum altitude 17:15:28 57° 93° (E) 1,157 4.1 -11.1°
Drops below altitude 10° 17:21:40 10° 16° (NNE) 2,765 6.0 -12.0°
Sets 17:24:14 0° 13° (NNE) 3,714 6.7 -12.4°
